owner,sensor,date,latitude,longitude,vertical_datum,mass_concentration_of_oxygen_in_sea_water,qcFlag 
DISL,ioos:station:DISL:KATA:1,2013-06-01T00:00:00Z,30.2583,-88.2131,4.105,7.16,1111122 
DISL,ioos:station:DISL:KATA:1,2013-06-01T00:30:00Z,30.2583,-88.2131,4.101,7.37,1111122 
DISL,ioos:station:DISL:KATA:1,2013-06-01T01:00:00Z,30.2583,-88.2131,4.089,7.21,1111122 
DISL,ioos:station:DISL:KATA:1,2013-06-01T01:30:00Z,30.2583,-88.2131,4.078,7.21,1111122 
DISL,ioos:station:DISL:KATA:1,2013-06-01T02:00:00Z,30.2583,-88.2131,4.074,7.18,1111122 
DISL,ioos:station:DISL:KATA:1,2013-06-01T02:30:00Z,30.2583,-88.2131,4.064,7.05,1111122 
DISL,ioos:station:DISL:KATA:1,2013-06-01T03:00:00Z,30.2583,-88.2131,4.048,6.96,1111122 
DISL,ioos:station:DISL:KATA:1,2013-06-01T03:30:00Z,30.2583,-88.2131,4.045,3.9,1111122 
DISL,ioos:station:DISL:KATA:1,2013-06-01T04:00:00Z,30.2583,-88.2131,4.034,3.16,1111122 
DISL,ioos:station:DISL:KATA:1,2013-06-01T04:30:00Z,30.2583,-88.2131,4.031,2.73,1111122 
DISL,ioos:station:DISL:KATA:1,2013-06-01T05:00:00Z,30.2583,-88.2131,4.033,2.62,1111122 
DISL,ioos:station:DISL:KATA:1,2013-06-01T05:30:00Z,30.2583,-88.2131,4.034,2.47,1111122 
DISL,ioos:station:DISL:KATA:1,2013-06-01T06:00:00Z,30.2583,-88.2131,4.045,2.54,1111122 
DISL,ioos:station:DISL:KATA:1,2013-06-01T06:30:00Z,30.2583,-88.2131,4.052,2.53,1111122 
DISL,ioos:station:DISL:KATA:1,2013-06-01T07:00:00Z,30.2583,-88.2131,4.073,2.56,1111122 
DISL,ioos:station:DISL:KATA:1,2013-06-01T07:30:00Z,30.2583,-88.2131,4.09,2.69,1111122 
DISL,ioos:station:DISL:KATA:1,2013-06-01T08:00:00Z,30.2583,-88.2131,4.096,2.7,1111122 
DISL,ioos:station:DISL:KATA:1,2013-06-01T08:30:00Z,30.2583,-88.2131,4.103,2.88,1111122 
DISL,ioos:station:DISL:KATA:1,2013-06-01T09:00:00Z,30.2583,-88.2131,4.098,3.1,1111122 
DISL,ioos:station:DISL:KATA:1,2013-06-01T09:30:00Z,30.2583,-88.2131,4.089,3.18,1111122 
DISL,ioos:station:DISL:KATA:1,2013-06-01T10:00:00Z,30.2583,-88.2131,4.09,3.21,1111122 
DISL,ioos:station:DISL:KATA:1,2013-06-01T10:30:00Z,30.2583,-88.2131,4.084,3.2,1111122 
DISL,ioos:station:DISL:KATA:1,2013-06-01T11:00:00Z,30.2583,-88.2131,4.084,3.17,1111122 
DISL,ioos:station:DISL:KATA:1,2013-06-01T11:30:00Z,30.2583,-88.2131,4.088,3.04,1111122 
DISL,ioos:station:DISL:KATA:1,2013-06-01T12:00:00Z,30.2583,-88.2131,4.089,3.11,1111122 
DISL,ioos:station:DISL:KATA:1,2013-06-01T12:30:00Z,30.2583,-88.2131,4.105,3.11,1111122 
DISL,ioos:station:DISL:KATA:1,2013-06-01T13:00:00Z,30.2583,-88.2131,4.126,3.1,1111122 
DISL,ioos:station:DISL:KATA:1,2013-06-01T13:30:00Z,30.2583,-88.2131,4.136,3.07,1111122 
DISL,ioos:station:DISL:KATA:1,2013-06-01T14:00:00Z,30.2583,-88.2131,4.152,3.12,1111122 
DISL,ioos:station:DISL:KATA:1,2013-06-01T14:30:00Z,30.2583,-88.2131,4.144,3.16,1111122 
DISL,ioos:station:DISL:KATA:1,2013-06-01T15:00:00Z,30.2583,-88.2131,4.141,3.13,1111122 
DISL,ioos:station:DISL:KATA:1,2013-06-01T15:30:00Z,30.2583,-88.2131,4.128,3.11,1111122 
DISL,ioos:station:DISL:KATA:1,2013-06-01T16:00:00Z,30.2583,-88.2131,4.119,3.16,1111122 
DISL,ioos:station:DISL:KATA:1,2013-06-01T16:30:00Z,30.2583,-88.2131,4.089,3.05,1111122 
DISL,ioos:station:DISL:KATA:1,2013-06-01T17:00:00Z,30.2583,-88.2131,4.067,3.17,1111122 
DISL,ioos:station:DISL:KATA:1,2013-06-01T17:30:00Z,30.2583,-88.2131,4.054,3.06,1111122 
DISL,ioos:station:DISL:KATA:1,2013-06-01T18:00:00Z,30.2583,-88.2131,4.046,3.07,1111122 
DISL,ioos:station:DISL:KATA:1,2013-06-01T18:30:00Z,30.2583,-88.2131,4.05,3.21,1111122 
DISL,ioos:station:DISL:KATA:1,2013-06-01T19:00:00Z,30.2583,-88.2131,4.047,3.46,1111122 
DISL,ioos:station:DISL:KATA:1,2013-06-01T19:30:00Z,30.2583,-88.2131,4.047,3.52,1111122 
DISL,ioos:station:DISL:KATA:1,2013-06-01T20:00:00Z,30.2583,-88.2131,4.046,3.65,1111122 
DISL,ioos:station:DISL:KATA:1,2013-06-01T20:30:00Z,30.2583,-88.2131,4.054,3.64,1111122 
DISL,ioos:station:DISL:KATA:1,2013-06-01T21:00:00Z,30.2583,-88.2131,4.053,3.84,1111122 
DISL,ioos:station:DISL:KATA:1,2013-06-01T21:30:00Z,30.2583,-88.2131,4.038,3.85,1111122 
DISL,ioos:station:DISL:KATA:1,2013-06-01T22:00:00Z,30.2583,-88.2131,4.018,4.0,1111122 
DISL,ioos:station:DISL:KATA:1,2013-06-01T22:30:00Z,30.2583,-88.2131,4.0,3.79,1111122 
DISL,ioos:station:DISL:KATA:1,2013-06-01T23:00:00Z,30.2583,-88.2131,3.995,4.14,1111122 
DISL,ioos:station:DISL:KATA:1,2013-06-01T23:30:00Z,30.2583,-88.2131,3.986,4.15,1111122 
DISL,ioos:station:DISL:KATA:1,2013-06-02T00:00:00Z,30.2583,-88.2131,3.992,4.04,1111122 
DISL,ioos:station:DISL:KATA:1,2013-06-02T00:30:00Z,30.2583,-88.2131,4.002,4.13,1111122 
DISL,ioos:station:DISL:KATA:1,2013-06-02T01:00:00Z,30.2583,-88.2131,4.009,4.03,1111122 
DISL,ioos:station:DISL:KATA:1,2013-06-02T01:30:00Z,30.2583,-88.2131,4.015,4.17,1111122 
DISL,ioos:station:DISL:KATA:1,2013-06-02T02:00:00Z,30.2583,-88.2131,4.013,4.09,1111122 
DISL,ioos:station:DISL:KATA:1,2013-06-02T02:30:00Z,30.2583,-88.2131,4.013,4.0,1111122 
DISL,ioos:station:DISL:KATA:1,2013-06-02T03:00:00Z,30.2583,-88.2131,4.006,4.12,1111122 
DISL,ioos:station:DISL:KATA:1,2013-06-02T03:30:00Z,30.2583,-88.2131,4.006,3.99,1111122 
DISL,ioos:station:DISL:KATA:1,2013-06-02T04:00:00Z,30.2583,-88.2131,3.999,3.86,1111122 
DISL,ioos:station:DISL:KATA:1,2013-06-02T04:30:00Z,30.2583,-88.2131,3.991,3.91,1111122 
DISL,ioos:station:DISL:KATA:1,2013-06-02T05:00:00Z,30.2583,-88.2131,3.994,4.01,1111122 
DISL,ioos:station:DISL:KATA:1,2013-06-02T05:30:00Z,30.2583,-88.2131,3.994,3.95,1111122 
DISL,ioos:station:DISL:KATA:1,2013-06-02T06:00:00Z,30.2583,-88.2131,3.993,3.95,1111122 
DISL,ioos:station:DISL:KATA:1,2013-06-02T06:30:00Z,30.2583,-88.2131,3.999,3.94,1111122 
DISL,ioos:station:DISL:KATA:1,2013-06-02T07:00:00Z,30.2583,-88.2131,4.002,4.08,1111122 
DISL,ioos:station:DISL:KATA:1,2013-06-02T07:30:00Z,30.2583,-88.2131,4.012,4.07,1111122 
DISL,ioos:station:DISL:KATA:1,2013-06-02T08:00:00Z,30.2583,-88.2131,4.034,4.1,1111122 
DISL,ioos:station:DISL:KATA:1,2013-06-02T08:30:00Z,30.2583,-88.2131,4.04,4.14,1111122 
DISL,ioos:station:DISL:KATA:1,2013-06-02T09:00:00Z,30.2583,-88.2131,4.049,3.89,1111122 
DISL,ioos:station:DISL:KATA:1,2013-06-02T09:30:00Z,30.2583,-88.2131,4.054,3.81,1111122 
DISL,ioos:station:DISL:KATA:1,2013-06-02T10:00:00Z,30.2583,-88.2131,4.071,3.91,1111122 
DISL,ioos:station:DISL:KATA:1,2013-06-02T10:30:00Z,30.2583,-88.2131,4.075,4.14,1111122 
DISL,ioos:station:DISL:KATA:1,2013-06-02T11:00:00Z,30.2583,-88.2131,4.081,4.09,1111122 
DISL,ioos:station:DISL:KATA:1,2013-06-02T11:30:00Z,30.2583,-88.2131,4.078,4.06,1111122 
DISL,ioos:station:DISL:KATA:1,2013-06-02T12:00:00Z,30.2583,-88.2131,4.064,4.03,1111122 
DISL,ioos:station:DISL:KATA:1,2013-06-02T12:30:00Z,30.2583,-88.2131,4.037,4.21,1111122 
DISL,ioos:station:DISL:KATA:1,2013-06-02T13:00:00Z,30.2583,-88.2131,4.029,4.04,1111122 
DISL,ioos:station:DISL:KATA:1,2013-06-02T13:30:00Z,30.2583,-88.2131,4.053,4.75,1111122 
DISL,ioos:station:DISL:KATA:1,2013-06-02T14:00:00Z,30.2583,-88.2131,4.018,4.85,1111122 
DISL,ioos:station:DISL:KATA:1,2013-06-02T14:30:00Z,30.2583,-88.2131,3.996,4.39,1111122 
DISL,ioos:station:DISL:KATA:1,2013-06-02T15:00:00Z,30.2583,-88.2131,3.967,4.22,1111122 
DISL,ioos:station:DISL:KATA:1,2013-06-02T15:30:00Z,30.2583,-88.2131,3.922,4.12,1111122 
DISL,ioos:station:DISL:KATA:1,2013-06-02T16:00:00Z,30.2583,-88.2131,3.891,4.02,1111122 
DISL,ioos:station:DISL:KATA:1,2013-06-02T16:30:00Z,30.2583,-88.2131,3.88,3.72,1111122 
DISL,ioos:station:DISL:KATA:1,2013-06-02T17:00:00Z,30.2583,-88.2131,3.876,3.66,1111122 
DISL,ioos:station:DISL:KATA:1,2013-06-02T17:30:00Z,30.2583,-88.2131,3.883,3.68,1111122 
DISL,ioos:station:DISL:KATA:1,2013-06-02T18:00:00Z,30.2583,-88.2131,3.903,3.5,1111122 
DISL,ioos:station:DISL:KATA:1,2013-06-02T18:30:00Z,30.2583,-88.2131,3.915,3.55,1111122 
DISL,ioos:station:DISL:KATA:1,2013-06-02T19:00:00Z,30.2583,-88.2131,3.942,3.7,1111122 
DISL,ioos:station:DISL:KATA:1,2013-06-02T19:30:00Z,30.2583,-88.2131,3.948,3.78,1111122 
DISL,ioos:station:DISL:KATA:1,2013-06-02T20:00:00Z,30.2583,-88.2131,3.95,3.94,1111122 
DISL,ioos:station:DISL:KATA:1,2013-06-02T20:30:00Z,30.2583,-88.2131,3.95,3.98,1111122 
DISL,ioos:station:DISL:KATA:1,2013-06-02T21:00:00Z,30.2583,-88.2131,3.941,3.88,1111122 
DISL,ioos:station:DISL:KATA:1,2013-06-02T21:30:00Z,30.2583,-88.2131,3.911,3.92,1111122 
DISL,ioos:station:DISL:KATA:1,2013-06-02T22:00:00Z,30.2583,-88.2131,3.888,3.94,1111122 
DISL,ioos:station:DISL:KATA:1,2013-06-02T22:30:00Z,30.2583,-88.2131,3.892,4.08,1111122 
DISL,ioos:station:DISL:KATA:1,2013-06-02T23:00:00Z,30.2583,-88.2131,3.901,4.14,1111122 
DISL,ioos:station:DISL:KATA:1,2013-06-02T23:30:00Z,30.2583,-88.2131,3.923,3.84,1111122 
DISL,ioos:station:DISL:KATA:1,2013-06-03T00:00:00Z,30.2583,-88.2131,3.929,3.67,1111122 
DISL,ioos:station:DISL:KATA:1,2013-06-03T00:30:00Z,30.2583,-88.2131,3.951,3.46,1111122 
DISL,ioos:station:DISL:KATA:1,2013-06-03T01:00:00Z,30.2583,-88.2131,3.965,3.63,1111122 
DISL,ioos:station:DISL:KATA:1,2013-06-03T01:30:00Z,30.2583,-88.2131,3.961,3.86,1111122 
DISL,ioos:station:DISL:KATA:1,2013-06-03T02:00:00Z,30.2583,-88.2131,3.97,3.85,1111122 
DISL,ioos:station:DISL:KATA:1,2013-06-03T02:30:00Z,30.2583,-88.2131,3.967,3.98,1111122 
DISL,ioos:station:DISL:KATA:1,2013-06-03T03:00:00Z,30.2583,-88.2131,3.99,4.1,1111122 
DISL,ioos:station:DISL:KATA:1,2013-06-03T03:30:00Z,30.2583,-88.2131,4.029,3.95,1111122 
DISL,ioos:station:DISL:KATA:1,2013-06-03T04:00:00Z,30.2583,-88.2131,4.066,3.9,1111122 
DISL,ioos:station:DISL:KATA:1,2013-06-03T04:30:00Z,30.2583,-88.2131,4.0,3.99,1111122 
DISL,ioos:station:DISL:KATA:1,2013-06-03T05:00:00Z,30.2583,-88.2131,3.969,4.01,1111122 
DISL,ioos:station:DISL:KATA:1,2013-06-03T05:30:00Z,30.2583,-88.2131,3.973,3.49,1111122 
DISL,ioos:station:DISL:KATA:1,2013-06-03T06:00:00Z,30.2583,-88.2131,3.957,3.71,1111122 
DISL,ioos:station:DISL:KATA:1,2013-06-03T06:30:00Z,30.2583,-88.2131,3.945,3.52,1111122 
DISL,ioos:station:DISL:KATA:1,2013-06-03T07:00:00Z,30.2583,-88.2131,3.937,3.35,1111122 
DISL,ioos:station:DISL:KATA:1,2013-06-03T07:30:00Z,30.2583,-88.2131,3.953,2.97,1111122 
DISL,ioos:station:DISL:KATA:1,2013-06-03T08:00:00Z,30.2583,-88.2131,3.986,2.84,1111122 
DISL,ioos:station:DISL:KATA:1,2013-06-03T08:30:00Z,30.2583,-88.2131,4.043,2.99,1111122 
DISL,ioos:station:DISL:KATA:1,2013-06-03T09:00:00Z,30.2583,-88.2131,4.074,3.04,1111122 
DISL,ioos:station:DISL:KATA:1,2013-06-03T09:30:00Z,30.2583,-88.2131,4.108,3.17,1111122 
DISL,ioos:station:DISL:KATA:1,2013-06-03T10:00:00Z,30.2583,-88.2131,4.127,3.26,1111122 
DISL,ioos:station:DISL:KATA:1,2013-06-03T10:30:00Z,30.2583,-88.2131,4.15,3.55,1111122 
DISL,ioos:station:DISL:KATA:1,2013-06-03T11:00:00Z,30.2583,-88.2131,4.149,3.78,1111122 
DISL,ioos:station:DISL:KATA:1,2013-06-03T11:30:00Z,30.2583,-88.2131,4.139,3.7,1111122 
DISL,ioos:station:DISL:KATA:1,2013-06-03T12:00:00Z,30.2583,-88.2131,4.132,3.63,1111122 
DISL,ioos:station:DISL:KATA:1,2013-06-03T12:30:00Z,30.2583,-88.2131,4.101,3.53,1111122 
DISL,ioos:station:DISL:KATA:1,2013-06-03T13:00:00Z,30.2583,-88.2131,4.089,3.34,1111122 
DISL,ioos:station:DISL:KATA:1,2013-06-03T13:30:00Z,30.2583,-88.2131,4.089,3.49,1111122 
DISL,ioos:station:DISL:KATA:1,2013-06-03T14:00:00Z,30.2583,-88.2131,4.088,3.57,1111122 
DISL,ioos:station:DISL:KATA:1,2013-06-03T14:30:00Z,30.2583,-88.2131,4.078,3.64,1111122 
DISL,ioos:station:DISL:KATA:1,2013-06-03T15:00:00Z,30.2583,-88.2131,4.083,3.6,1111122 
DISL,ioos:station:DISL:KATA:1,2013-06-03T15:30:00Z,30.2583,-88.2131,4.069,4.02,1111122 
DISL,ioos:station:DISL:KATA:1,2013-06-03T16:00:00Z,30.2583,-88.2131,4.036,3.7,1111122 
DISL,ioos:station:DISL:KATA:1,2013-06-03T16:30:00Z,30.2583,-88.2131,3.999,3.71,1111122 
DISL,ioos:station:DISL:KATA:1,2013-06-03T17:00:00Z,30.2583,-88.2131,3.955,3.66,1111122 
DISL,ioos:station:DISL:KATA:1,2013-06-03T17:30:00Z,30.2583,-88.2131,3.919,3.5,1111122 
DISL,ioos:station:DISL:KATA:1,2013-06-03T18:00:00Z,30.2583,-88.2131,3.871,3.64,1111122 
DISL,ioos:station:DISL:KATA:1,2013-06-03T18:30:00Z,30.2583,-88.2131,3.847,3.74,1111122 
DISL,ioos:station:DISL:KATA:1,2013-06-03T19:00:00Z,30.2583,-88.2131,3.825,3.79,1111122 
DISL,ioos:station:DISL:KATA:1,2013-06-03T19:30:00Z,30.2583,-88.2131,3.808,3.9,1111122 
DISL,ioos:station:DISL:KATA:1,2013-06-03T20:00:00Z,30.2583,-88.2131,3.803,3.89,1111122 
DISL,ioos:station:DISL:KATA:1,2013-06-03T20:30:00Z,30.2583,-88.2131,3.792,3.76,1111122 
DISL,ioos:station:DISL:KATA:1,2013-06-03T21:00:00Z,30.2583,-88.2131,3.779,3.52,1111122 
DISL,ioos:station:DISL:KATA:1,2013-06-03T21:30:00Z,30.2583,-88.2131,3.761,3.52,1111122 
DISL,ioos:station:DISL:KATA:1,2013-06-03T22:00:00Z,30.2583,-88.2131,3.766,3.61,1111122 
DISL,ioos:station:DISL:KATA:1,2013-06-03T22:30:00Z,30.2583,-88.2131,3.761,3.65,1111122 
DISL,ioos:station:DISL:KATA:1,2013-06-03T23:00:00Z,30.2583,-88.2131,3.775,3.74,1111122 
DISL,ioos:station:DISL:KATA:1,2013-06-03T23:30:00Z,30.2583,-88.2131,3.791,3.65,1111122 
DISL,ioos:station:DISL:KATA:1,2013-06-04T00:00:00Z,30.2583,-88.2131,3.799,3.73,1111122 
DISL,ioos:station:DISL:KATA:1,2013-06-04T00:30:00Z,30.2583,-88.2131,3.805,3.69,1111122 
DISL,ioos:station:DISL:KATA:1,2013-06-04T01:00:00Z,30.2583,-88.2131,3.824,3.73,1111122 
DISL,ioos:station:DISL:KATA:1,2013-06-04T01:30:00Z,30.2583,-88.2131,3.829,3.78,1111122 
DISL,ioos:station:DISL:KATA:1,2013-06-04T02:00:00Z,30.2583,-88.2131,3.836,3.76,1111122 
DISL,ioos:station:DISL:KATA:1,2013-06-04T02:30:00Z,30.2583,-88.2131,3.844,3.69,1111122 
DISL,ioos:station:DISL:KATA:1,2013-06-04T03:00:00Z,30.2583,-88.2131,3.866,3.66,1111122 
DISL,ioos:station:DISL:KATA:1,2013-06-04T03:30:00Z,30.2583,-88.2131,3.89,3.58,1111122 
DISL,ioos:station:DISL:KATA:1,2013-06-04T04:00:00Z,30.2583,-88.2131,3.908,3.54,1111122 
DISL,ioos:station:DISL:KATA:1,2013-06-04T04:30:00Z,30.2583,-88.2131,3.941,3.43,1111122 
DISL,ioos:station:DISL:KATA:1,2013-06-04T05:00:00Z,30.2583,-88.2131,3.958,3.38,1111122 
DISL,ioos:station:DISL:KATA:1,2013-06-04T05:30:00Z,30.2583,-88.2131,3.969,3.39,1111122 
DISL,ioos:station:DISL:KATA:1,2013-06-04T06:00:00Z,30.2583,-88.2131,3.985,3.42,1111122 
DISL,ioos:station:DISL:KATA:1,2013-06-04T06:30:00Z,30.2583,-88.2131,3.997,3.46,1111122 
DISL,ioos:station:DISL:KATA:1,2013-06-04T07:00:00Z,30.2583,-88.2131,4.015,3.48,1111122 
DISL,ioos:station:DISL:KATA:1,2013-06-04T07:30:00Z,30.2583,-88.2131,4.036,3.46,1111122 
DISL,ioos:station:DISL:KATA:1,2013-06-04T08:00:00Z,30.2583,-88.2131,4.052,3.48,1111122 
DISL,ioos:station:DISL:KATA:1,2013-06-04T08:30:00Z,30.2583,-88.2131,4.079,3.5,1111122 
DISL,ioos:station:DISL:KATA:1,2013-06-04T09:00:00Z,30.2583,-88.2131,4.091,3.4,1111122 
DISL,ioos:station:DISL:KATA:1,2013-06-04T09:30:00Z,30.2583,-88.2131,4.104,3.49,1111122 
DISL,ioos:station:DISL:KATA:1,2013-06-04T10:00:00Z,30.2583,-88.2131,4.122,3.49,1111122 
DISL,ioos:station:DISL:KATA:1,2013-06-04T10:30:00Z,30.2583,-88.2131,4.137,3.75,1111122 
DISL,ioos:station:DISL:KATA:1,2013-06-04T11:00:00Z,30.2583,-88.2131,4.139,3.62,1111122 
DISL,ioos:station:DISL:KATA:1,2013-06-04T11:30:00Z,30.2583,-88.2131,4.144,3.74,1111122 
DISL,ioos:station:DISL:KATA:1,2013-06-04T12:00:00Z,30.2583,-88.2131,4.14,3.31,1111122 
DISL,ioos:station:DISL:KATA:1,2013-06-04T12:30:00Z,30.2583,-88.2131,4.136,3.15,1111122 
DISL,ioos:station:DISL:KATA:1,2013-06-04T13:00:00Z,30.2583,-88.2131,4.132,3.18,1111122 
DISL,ioos:station:DISL:KATA:1,2013-06-04T13:30:00Z,30.2583,-88.2131,4.12,3.28,1111122 
DISL,ioos:station:DISL:KATA:1,2013-06-04T14:00:00Z,30.2583,-88.2131,4.106,2.74,1111122 
DISL,ioos:station:DISL:KATA:1,2013-06-04T14:30:00Z,30.2583,-88.2131,4.095,2.82,1111122 
DISL,ioos:station:DISL:KATA:1,2013-06-04T15:00:00Z,30.2583,-88.2131,4.081,2.95,1111122 
DISL,ioos:station:DISL:KATA:1,2013-06-04T15:30:00Z,30.2583,-88.2131,4.067,3.1,1111122 
DISL,ioos:station:DISL:KATA:1,2013-06-04T16:00:00Z,30.2583,-88.2131,4.054,3.05,1111122 
DISL,ioos:station:DISL:KATA:1,2013-06-04T16:30:00Z,30.2583,-88.2131,4.03,3.16,1111122 
DISL,ioos:station:DISL:KATA:1,2013-06-04T17:00:00Z,30.2583,-88.2131,3.999,2.88,1111122 
DISL,ioos:station:DISL:KATA:1,2013-06-04T17:30:00Z,30.2583,-88.2131,3.972,3.3,1111122 
DISL,ioos:station:DISL:KATA:1,2013-06-04T18:00:00Z,30.2583,-88.2131,3.937,3.14,1111122 
DISL,ioos:station:DISL:KATA:1,2013-06-04T18:30:00Z,30.2583,-88.2131,3.898,3.05,1111122 
DISL,ioos:station:DISL:KATA:1,2013-06-04T19:00:00Z,30.2583,-88.2131,3.861,3.09,1111122 
DISL,ioos:station:DISL:KATA:1,2013-06-04T19:30:00Z,30.2583,-88.2131,3.824,3.17,1111122 
DISL,ioos:station:DISL:KATA:1,2013-06-04T20:00:00Z,30.2583,-88.2131,3.793,3.05,1111122 
DISL,ioos:station:DISL:KATA:1,2013-06-04T20:30:00Z,30.2583,-88.2131,3.76,3.4,1111122 
DISL,ioos:station:DISL:KATA:1,2013-06-04T21:00:00Z,30.2583,-88.2131,3.735,3.47,1111122 
DISL,ioos:station:DISL:KATA:1,2013-06-04T21:30:00Z,30.2583,-88.2131,3.715,3.18,1111122 
DISL,ioos:station:DISL:KATA:1,2013-06-04T22:00:00Z,30.2583,-88.2131,3.711,3.55,1111122 
DISL,ioos:station:DISL:KATA:1,2013-06-04T22:30:00Z,30.2583,-88.2131,3.72,3.35,1111122 
DISL,ioos:station:DISL:KATA:1,2013-06-04T23:00:00Z,30.2583,-88.2131,3.732,3.23,1111122 
DISL,ioos:station:DISL:KATA:1,2013-06-04T23:30:00Z,30.2583,-88.2131,3.754,3.16,1111122 
DISL,ioos:station:DISL:KATA:1,2013-06-05T00:00:00Z,30.2583,-88.2131,3.765,3.25,1111122 
DISL,ioos:station:DISL:KATA:1,2013-06-05T00:30:00Z,30.2583,-88.2131,3.773,3.36,1111122 
DISL,ioos:station:DISL:KATA:1,2013-06-05T01:00:00Z,30.2583,-88.2131,3.785,3.29,1111122 
DISL,ioos:station:DISL:KATA:1,2013-06-05T01:30:00Z,30.2583,-88.2131,3.787,3.07,1111122 
DISL,ioos:station:DISL:KATA:1,2013-06-05T02:00:00Z,30.2583,-88.2131,3.773,2.88,1111122 
DISL,ioos:station:DISL:KATA:1,2013-06-05T02:30:00Z,30.2583,-88.2131,3.783,2.81,1111122 
DISL,ioos:station:DISL:KATA:1,2013-06-05T03:00:00Z,30.2583,-88.2131,3.823,2.85,1111122 
DISL,ioos:station:DISL:KATA:1,2013-06-05T03:30:00Z,30.2583,-88.2131,3.858,2.98,1111122 
DISL,ioos:station:DISL:KATA:1,2013-06-05T04:00:00Z,30.2583,-88.2131,3.904,3.26,1111122 
DISL,ioos:station:DISL:KATA:1,2013-06-05T04:30:00Z,30.2583,-88.2131,3.935,3.57,1111122 
DISL,ioos:station:DISL:KATA:1,2013-06-05T05:00:00Z,30.2583,-88.2131,3.955,5.11,1111122 
DISL,ioos:station:DISL:KATA:1,2013-06-05T05:30:00Z,30.2583,-88.2131,3.962,4.99,1111122 
DISL,ioos:station:DISL:KATA:1,2013-06-05T06:00:00Z,30.2583,-88.2131,3.986,4.6,1111122 
DISL,ioos:station:DISL:KATA:1,2013-06-05T06:30:00Z,30.2583,-88.2131,4.006,4.21,1111122 
DISL,ioos:station:DISL:KATA:1,2013-06-05T07:00:00Z,30.2583,-88.2131,4.026,3.93,1111122 
DISL,ioos:station:DISL:KATA:1,2013-06-05T07:30:00Z,30.2583,-88.2131,4.038,3.91,1111122 
DISL,ioos:station:DISL:KATA:1,2013-06-05T08:00:00Z,30.2583,-88.2131,4.051,3.57,1111122 
DISL,ioos:station:DISL:KATA:1,2013-06-05T08:30:00Z,30.2583,-88.2131,4.063,3.46,1111122 
DISL,ioos:station:DISL:KATA:1,2013-06-05T09:00:00Z,30.2583,-88.2131,4.081,3.37,1111122 
DISL,ioos:station:DISL:KATA:1,2013-06-05T09:30:00Z,30.2583,-88.2131,4.11,3.57,1111122 
DISL,ioos:station:DISL:KATA:1,2013-06-05T10:00:00Z,30.2583,-88.2131,4.148,3.9,1111122 
DISL,ioos:station:DISL:KATA:1,2013-06-05T10:30:00Z,30.2583,-88.2131,4.186,4.16,1111122 
DISL,ioos:station:DISL:KATA:1,2013-06-05T11:00:00Z,30.2583,-88.2131,4.206,4.22,1111122 
DISL,ioos:station:DISL:KATA:1,2013-06-05T11:30:00Z,30.2583,-88.2131,4.219,4.29,1111122 
DISL,ioos:station:DISL:KATA:1,2013-06-05T12:00:00Z,30.2583,-88.2131,4.224,4.33,1111122 
DISL,ioos:station:DISL:KATA:1,2013-06-05T12:30:00Z,30.2583,-88.2131,4.22,4.36,1111122 
DISL,ioos:station:DISL:KATA:1,2013-06-05T13:00:00Z,30.2583,-88.2131,4.228,4.39,1111122 
DISL,ioos:station:DISL:KATA:1,2013-06-05T13:30:00Z,30.2583,-88.2131,4.215,4.36,1111122 
DISL,ioos:station:DISL:KATA:1,2013-06-05T14:00:00Z,30.2583,-88.2131,4.213,4.4,1111122 
DISL,ioos:station:DISL:KATA:1,2013-06-05T14:30:00Z,30.2583,-88.2131,4.203,4.44,1111122 
DISL,ioos:station:DISL:KATA:1,2013-06-05T15:00:00Z,30.2583,-88.2131,4.192,4.58,1111122 
DISL,ioos:station:DISL:KATA:1,2013-06-05T15:30:00Z,30.2583,-88.2131,4.177,4.58,1111122 
DISL,ioos:station:DISL:KATA:1,2013-06-05T16:00:00Z,30.2583,-88.2131,4.153,4.69,1111122 
DISL,ioos:station:DISL:KATA:1,2013-06-05T16:30:00Z,30.2583,-88.2131,4.136,4.62,1111122 
DISL,ioos:station:DISL:KATA:1,2013-06-05T17:00:00Z,30.2583,-88.2131,4.108,4.56,1111122 
DISL,ioos:station:DISL:KATA:1,2013-06-05T17:30:00Z,30.2583,-88.2131,4.084,4.41,1111122 
DISL,ioos:station:DISL:KATA:1,2013-06-05T18:00:00Z,30.2583,-88.2131,4.047,4.29,1111122 
DISL,ioos:station:DISL:KATA:1,2013-06-05T18:30:00Z,30.2583,-88.2131,4.012,4.0,1111122 
DISL,ioos:station:DISL:KATA:1,2013-06-05T19:00:00Z,30.2583,-88.2131,3.961,4.21,1111122 
DISL,ioos:station:DISL:KATA:1,2013-06-05T19:30:00Z,30.2583,-88.2131,3.907,4.61,1111122 
DISL,ioos:station:DISL:KATA:1,2013-06-05T20:00:00Z,30.2583,-88.2131,3.849,4.46,1111122 
DISL,ioos:station:DISL:KATA:1,2013-06-05T20:30:00Z,30.2583,-88.2131,3.808,4.66,1111122 
DISL,ioos:station:DISL:KATA:1,2013-06-05T21:00:00Z,30.2583,-88.2131,3.775,5.21,1111122 
DISL,ioos:station:DISL:KATA:1,2013-06-05T21:30:00Z,30.2583,-88.2131,3.749,3.82,1111122 
DISL,ioos:station:DISL:KATA:1,2013-06-05T22:00:00Z,30.2583,-88.2131,3.752,3.97,1111122 
DISL,ioos:station:DISL:KATA:1,2013-06-05T22:30:00Z,30.2583,-88.2131,3.759,3.84,1111122 
DISL,ioos:station:DISL:KATA:1,2013-06-05T23:00:00Z,30.2583,-88.2131,3.773,3.56,1111122 
DISL,ioos:station:DISL:KATA:1,2013-06-05T23:30:00Z,30.2583,-88.2131,3.786,3.51,1111122 
DISL,ioos:station:DISL:KATA:1,2013-06-06T00:00:00Z,30.2583,-88.2131,3.804,3.63,1111122 
DISL,ioos:station:DISL:KATA:1,2013-06-06T00:30:00Z,30.2583,-88.2131,3.811,4.11,1111122 
DISL,ioos:station:DISL:KATA:1,2013-06-06T01:00:00Z,30.2583,-88.2131,3.814,4.88,1111122 
DISL,ioos:station:DISL:KATA:1,2013-06-06T01:30:00Z,30.2583,-88.2131,3.828,4.71,1111122 
DISL,ioos:station:DISL:KATA:1,2013-06-06T02:00:00Z,30.2583,-88.2131,3.847,4.78,1111122 
DISL,ioos:station:DISL:KATA:1,2013-06-06T02:30:00Z,30.2583,-88.2131,3.856,5.41,1111122 
DISL,ioos:station:DISL:KATA:1,2013-06-06T03:00:00Z,30.2583,-88.2131,3.856,5.31,1111122 
DISL,ioos:station:DISL:KATA:1,2013-06-06T03:30:00Z,30.2583,-88.2131,3.873,5.11,1111122 
DISL,ioos:station:DISL:KATA:1,2013-06-06T04:00:00Z,30.2583,-88.2131,3.889,5.07,1111122 
DISL,ioos:station:DISL:KATA:1,2013-06-06T04:30:00Z,30.2583,-88.2131,3.964,5.09,1111122 
DISL,ioos:station:DISL:KATA:1,2013-06-06T05:00:00Z,30.2583,-88.2131,3.9,5.42,1111122 
DISL,ioos:station:DISL:KATA:1,2013-06-06T05:30:00Z,30.2583,-88.2131,3.902,5.52,1111122 
DISL,ioos:station:DISL:KATA:1,2013-06-06T06:00:00Z,30.2583,-88.2131,3.887,5.49,1111122 
DISL,ioos:station:DISL:KATA:1,2013-06-06T06:30:00Z,30.2583,-88.2131,3.882,5.37,1111122 
DISL,ioos:station:DISL:KATA:1,2013-06-06T07:00:00Z,30.2583,-88.2131,3.965,5.3,1111122 
DISL,ioos:station:DISL:KATA:1,2013-06-06T07:30:00Z,30.2583,-88.2131,4.015,5.22,1111122 
DISL,ioos:station:DISL:KATA:1,2013-06-06T08:00:00Z,30.2583,-88.2131,4.042,5.11,1111122 
DISL,ioos:station:DISL:KATA:1,2013-06-06T08:30:00Z,30.2583,-88.2131,4.106,5.09,1111122 
DISL,ioos:station:DISL:KATA:1,2013-06-06T09:00:00Z,30.2583,-88.2131,4.135,5.07,1111122 
DISL,ioos:station:DISL:KATA:1,2013-06-06T09:30:00Z,30.2583,-88.2131,4.173,4.97,1111122 
DISL,ioos:station:DISL:KATA:1,2013-06-06T10:00:00Z,30.2583,-88.2131,4.223,5.12,1111122 
DISL,ioos:station:DISL:KATA:1,2013-06-06T10:30:00Z,30.2583,-88.2131,4.252,5.1,1111122 
DISL,ioos:station:DISL:KATA:1,2013-06-06T11:00:00Z,30.2583,-88.2131,4.301,5.07,1111122 
DISL,ioos:station:DISL:KATA:1,2013-06-06T11:30:00Z,30.2583,-88.2131,4.326,5.11,1111122 
DISL,ioos:station:DISL:KATA:1,2013-06-06T12:00:00Z,30.2583,-88.2131,4.361,5.17,1111122 
DISL,ioos:station:DISL:KATA:1,2013-06-06T12:30:00Z,30.2583,-88.2131,4.385,5.21,1111122 
DISL,ioos:station:DISL:KATA:1,2013-06-06T13:00:00Z,30.2583,-88.2131,4.383,5.28,1111122 
DISL,ioos:station:DISL:KATA:1,2013-06-06T13:30:00Z,30.2583,-88.2131,4.361,5.03,1111122 
DISL,ioos:station:DISL:KATA:1,2013-06-06T14:00:00Z,30.2583,-88.2131,4.355,4.96,1111122 
DISL,ioos:station:DISL:KATA:1,2013-06-06T14:30:00Z,30.2583,-88.2131,4.328,5.0,1111122 
DISL,ioos:station:DISL:KATA:1,2013-06-06T15:00:00Z,30.2583,-88.2131,4.314,4.72,1111122 
DISL,ioos:station:DISL:KATA:1,2013-06-06T15:30:00Z,30.2583,-88.2131,4.327,4.55,1111122 